DW9106 Madrid ES current weather conditions

sailwx.info

Wind from 063 at 0 knots gusting 4

Air temperature 15.6° C
Dewpoint 10.7° C

Last reported at 2014-Nov-23 17:49 UTC.
Time now 2014-Nov-23 18:54 UTC

Location: N 40°23' W 003°38'.
View on Google Maps.

See reports from other nearby stations

  
Tides and Currents Weather Stations Pressure Air Temp Water Temp Dewpoint Dewpoint Depression Visibility Wind Speed Wind Dir Waves Ship Positions
date/time (UTC)wind fromknots sea level pressurealtimeterstation pressurevisibilityair tempwater tempwave heightnotes
2014-Nov-23 17:49 063 0 gusting 4 15.6
2014-Nov-23 17:34 065 1 gusting 4 15.6
2014-Nov-23 17:19 048 2 gusting 5 15.6
2014-Nov-23 17:04 070 0 gusting 4 15.6
2014-Nov-23 16:49 032 1 gusting 3 15.6
2014-Nov-23 16:34 042 0 gusting 3 15.6
2014-Nov-23 16:19 054 1 gusting 3 15.6
2014-Nov-23 16:04 078 15.6
2014-Nov-23 15:49 065 1 gusting 4 16.1
2014-Nov-23 15:34 046 16.1
2014-Nov-23 15:19 040 1 gusting 3 16.1
2014-Nov-23 15:04 046 16.1
2014-Nov-23 14:49 051 0 gusting 4 16.1
2014-Nov-23 14:34 054 3 gusting 6 16.1
2014-Nov-23 14:19 042 1 gusting 5 16.1
2014-Nov-23 14:04 044 2 gusting 6 16.1
2014-Nov-23 13:49 032 1 gusting 5 16.1
2014-Nov-23 13:34 355 0 gusting 5 16.1
2014-Nov-23 13:19 040 0 gusting 5 16.1
2014-Nov-23 13:04 013 1 gusting 3 16.1
2014-Nov-23 12:34 059 15.6
2014-Nov-23 12:19 036 0 gusting 5 15.6
2014-Nov-23 12:04 079 15.6
2014-Nov-23 11:49 063 2 gusting 4 15.6
2014-Nov-23 11:34 015 1 gusting 3 15.0
2014-Nov-23 11:19 055 14.4
2014-Nov-23 11:04 060 0 gusting 2 13.9
2014-Nov-23 10:49 103 0 gusting 2 13.9
2014-Nov-23 10:34 171 13.3
2014-Nov-23 10:19 171 12.8
2014-Nov-23 10:04 171 12.8
2014-Nov-23 09:49 171 12.8
2014-Nov-23 09:34 198 12.8
2014-Nov-23 09:19 198 12.8
2014-Nov-23 09:04 167 12.8
2014-Nov-23 08:49 176 12.8
2014-Nov-23 08:34 240 12.8
2014-Nov-23 08:19 240 12.8
2014-Nov-23 08:03 239 12.8
2014-Nov-23 07:48 228 12.8
2014-Nov-23 07:33 236 12.8
2014-Nov-23 07:18 236 13.3
2014-Nov-23 07:03 236 13.3
2014-Nov-23 06:48 236 13.9
2014-Nov-23 06:33 249 14.4
2014-Nov-23 06:18 161 14.4
2014-Nov-23 06:03 221 15.0
2014-Nov-23 05:48 211 15.0
2014-Nov-23 05:33 205 15.0
2014-Nov-23 05:18 146 0 gusting 5 15.6
2014-Nov-23 05:03 157 0 gusting 5 15.0
2014-Nov-23 04:48 084 1 gusting 6 15.6
2014-Nov-23 04:18 027 15.6
2014-Nov-23 04:03 107 0 gusting 3 15.6
2014-Nov-23 03:48 131 0 gusting 4 15.6
2014-Nov-23 03:33 144 15.6
2014-Nov-23 03:18 161 1 gusting 6 15.6
2014-Nov-23 03:03 067 1 gusting 5 15.0
2014-Nov-23 02:48 059 15.0
2014-Nov-23 02:33 060 0 gusting 6 15.0
2014-Nov-23 02:18 057 0 gusting 3 15.0
2014-Nov-23 02:03 046 15.0
2014-Nov-23 01:48 049 15.0
2014-Nov-23 01:33 038 0 gusting 3 15.6
2014-Nov-23 01:18 072 0 gusting 5 15.6
2014-Nov-23 01:03 110 2 gusting 6 16.1
2014-Nov-23 00:48 072 2 gusting 8 16.1
2014-Nov-23 00:33 069 1 gusting 6 16.1
2014-Nov-23 00:18 060 1 gusting 11 16.1
2014-Nov-23 00:03 038 0 gusting 8 16.1
2014-Nov-22 23:48 096 5 gusting 10 16.1
2014-Nov-22 23:33 117 1 gusting 6 15.6
2014-Nov-22 23:18 096 0 gusting 3 15.6
2014-Nov-22 23:03 074 0 gusting 2 15.6
2014-Nov-22 22:48 056 1 gusting 4 15.6
2014-Nov-22 22:33 038 0 gusting 4 15.6
2014-Nov-22 22:18 069 15.6
2014-Nov-22 22:03 061 1 gusting 3 15.6
2014-Nov-22 21:48 053 0 gusting 3 15.6
2014-Nov-22 21:33 056 0 gusting 3 15.6
2014-Nov-22 21:18 097 15.6
2014-Nov-22 21:03 061 1 gusting 6 15.6
2014-Nov-22 20:48 046 0 gusting 3 16.1
2014-Nov-22 20:33 059 1 gusting 7 15.6
2014-Nov-22 20:18 044 1 gusting 6 15.6
2014-Nov-22 20:03 069 16.1
2014-Nov-22 19:47 063 1 gusting 5 16.1
2014-Nov-22 19:33 061 1 gusting 6 16.1
2014-Nov-22 19:17 103 2 gusting 6 16.1
2014-Nov-22 19:02 064 1 gusting 3 16.1
2014-Nov-22 18:47 053 2 gusting 6 16.7
2014-Nov-22 18:32 063 2 gusting 6 16.7
2014-Nov-22 18:17 033 0 gusting 3 16.1
2014-Nov-22 18:02 029 0 gusting 5 16.1
2014-Nov-22 17:47 061 2 gusting 4 16.1
2014-Nov-22 17:32 040 16.7
2014-Nov-22 17:17 055 2 gusting 4 16.7
2014-Nov-22 17:02 049 0 gusting 5 16.7
2014-Nov-22 16:47 034 1 gusting 5 16.7
2014-Nov-22 16:32 024 2 gusting 6 17.2
2014-Nov-22 16:17 069 2 gusting 4 17.2
2014-Nov-22 16:02 023 3 gusting 6 17.2
2014-Nov-22 15:47 090 1 gusting 7 17.2
2014-Nov-22 15:32 046 2 gusting 6 17.8
2014-Nov-22 15:17 070 4 gusting 9 17.8
2014-Nov-22 15:02 072 5 gusting 11 17.8
2014-Nov-22 14:47 027 3 gusting 8 17.8
2014-Nov-22 14:32 018 3 gusting 6 17.8
2014-Nov-22 14:17 015 4 gusting 9 17.8
2014-Nov-22 14:02 023 4 gusting 7 17.8
2014-Nov-22 13:47 047 5 gusting 9 17.2
2014-Nov-22 13:32 076 4 gusting 7 17.2
2014-Nov-22 13:17 075 4 gusting 6 16.7
2014-Nov-22 13:02 083 1 gusting 6 16.7
2014-Nov-22 12:47 033 3 gusting 6 16.7
2014-Nov-22 12:32 078 2 gusting 5 16.7
2014-Nov-22 12:17 080 2 gusting 6 16.7
2014-Nov-22 12:02 009 3 gusting 6 16.1
2014-Nov-22 11:47 022 2 gusting 6 16.1
2014-Nov-22 11:32 093 2 gusting 6 16.1
2014-Nov-22 11:17 026 0 gusting 6 15.0
2014-Nov-22 11:02 052 4 gusting 9 14.4
2014-Nov-22 10:47 030 2 gusting 7 13.9
2014-Nov-22 10:32 037 4 gusting 6 13.3
2014-Nov-22 10:16 015 5 gusting 8 12.8
2014-Nov-22 10:01 025 4 gusting 7 12.8
2014-Nov-22 09:46 045 3 gusting 7 12.2
2014-Nov-22 09:31 037 3 gusting 6 11.7
2014-Nov-22 09:16 032 0 gusting 5 11.1
2014-Nov-22 09:01 040 0 gusting 4 11.1
2014-Nov-22 08:46 031 2 gusting 6 11.7
2014-Nov-22 08:31 038 1 gusting 5 11.7
2014-Nov-22 08:16 056 1 gusting 5 11.7
2014-Nov-22 08:01 074 3 gusting 6 11.1
2014-Nov-22 07:46 058 2 gusting 6 11.1
2014-Nov-22 07:31 041 2 gusting 6 11.1
2014-Nov-22 07:16 052 1 gusting 7 11.1
2014-Nov-22 07:01 142 11.1
2014-Nov-22 06:46 046 0 gusting 2 11.1
2014-Nov-22 06:31 040 0 gusting 2 11.1
2014-Nov-22 06:16 005 11.1
2014-Nov-22 06:01 023 11.1
2014-Nov-22 05:46 018 11.1
2014-Nov-22 05:31 039 0 gusting 3 11.1
2014-Nov-22 05:16 039 0 gusting 4 11.1
2014-Nov-22 05:01 080 0 gusting 4 11.1
2014-Nov-22 04:46 028 11.1
2014-Nov-22 04:31 028 11.1
2014-Nov-22 04:16 028 11.1
2014-Nov-22 04:01 027 10.6
2014-Nov-22 03:46 306 10.6
2014-Nov-22 03:31 259 10.6
2014-Nov-22 03:16 044 0 gusting 4 11.1
2014-Nov-22 03:01 049 1 gusting 6 11.1
2014-Nov-22 02:46 050 1 gusting 3 11.1
2014-Nov-22 02:31 041 11.1
2014-Nov-22 02:16 057 11.1
2014-Nov-22 02:01 066 11.1
2014-Nov-22 01:46 040 11.1
2014-Nov-22 01:31 069 1 gusting 4 11.1
2014-Nov-22 01:16 044 0 gusting 2 11.1
2014-Nov-22 01:01 076 11.1
2014-Nov-22 00:46 051 2 gusting 5 10.6
2014-Nov-22 00:31 036 11.1
2014-Nov-22 00:16 035 0 gusting 2 11.1
2014-Nov-22 00:00 097 11.1
2014-Nov-21 23:45 043 11.7
2014-Nov-21 23:30 046 11.7
2014-Nov-21 23:15 063 12.2
2014-Nov-21 23:00 071 2 gusting 4 12.2
2014-Nov-21 22:45 169 12.2
2014-Nov-21 22:30 041 0 gusting 3 12.2
2014-Nov-21 22:15 303 12.2
2014-Nov-21 22:00 032 0 gusting 3 12.2
2014-Nov-21 21:45 046 0 gusting 5 12.2
2014-Nov-21 21:30 047 1 gusting 6 12.2
2014-Nov-21 21:15 039 2 gusting 5 12.2
2014-Nov-21 21:00 080 12.8
2014-Nov-21 20:45 061 0 gusting 4 12.8
2014-Nov-21 20:30 059 1 gusting 6 12.8
2014-Nov-21 20:15 068 0 gusting 3 12.8
2014-Nov-21 20:00 055 13.3
2014-Nov-21 19:45 045 0 gusting 4 13.3
2014-Nov-21 19:30 066 0 gusting 5 13.9
2014-Nov-21 19:15 063 0 gusting 5 13.9
2014-Nov-21 19:00 040 1 gusting 6 13.9
2014-Nov-21 18:45 036 2 gusting 5 14.4
2014-Nov-21 18:30 051 1 gusting 4 14.4
2014-Nov-21 18:15 053 4 gusting 6 14.4
2014-Nov-21 18:00 049 1 gusting 6 14.4